This is the latest recevied weather packets stored in our database for station/object WX6HNX-6. If no packets are shown the sender has not sent any weather packets the latest 10 day(s).
| Time | Temp. | Humidity | Pressure | Rain* | Wind** | Luminosity | Snow |
|---|---|---|---|---|---|---|---|
| 1777775456 | 26.67° C | 31% | 1007.6 hPa | 0 mm | - | - | - |
| 1777775156 | 26.67° C | 24% | 1007.6 hPa | 0 mm | - | - | - |
| 1777774856 | 27.22° C | 24% | 1007.5 hPa | 0 mm | - | - | - |
| 1777774556 | 27.22° C | 24% | 1007.4 hPa | 0 mm | - | - | - |
| 1777773956 | 27.78° C | 23% | 1007.4 hPa | 0 mm | - | - | - |
| 1777773656 | 27.78° C | 22% | 1007.3 hPa | 0 mm | - | - | - |
| 1777773356 | 28.33° C | 22% | 1007.4 hPa | 0 mm | - | - | - |
| 1777773056 | 28.33° C | 22% | 1007.3 hPa | 0 mm | - | - | - |
| 1777772756 | 28.89° C | 21% | 1007.2 hPa | 0 mm | - | - | - |
| 1777772456 | 28.89° C | 21% | 1007.2 hPa | 0 mm | - | - | - |
| 1777772156 | 28.89° C | 20% | 1007.2 hPa | 0 mm | - | - | - |
| 1777771858 | 29.44° C | 21% | 1007.1 hPa | 0 mm | - | - | - |
| 1777771423 | 29.44° C | 20% | 1007.2 hPa | 0 mm | - | - | - |
| 1777771064 | 30° C | 20% | 1007.2 hPa | 0 mm | - | - | - |
| 1777770762 | 30° C | 20% | 1007.3 hPa | 0 mm | - | - | - |
| 1777770162 | 30.56° C | 20% | 1007.3 hPa | 0 mm | - | - | - |
| 1777769758 | 30.56° C | 20% | 1007.3 hPa | 0 mm | - | - | - |
| 1777769157 | 31.67° C | 19% | 1007.3 hPa | 0 mm | - | - | - |
| 1777768857 | 31.67° C | 19% | 1007.3 hPa | 0 mm | - | - | - |
| 1777768557 | 32.22° C | 17% | 1007.3 hPa | 0 mm | - | - | - |
| 1777768257 | 32.22° C | 17% | 1007.3 hPa | 0 mm | - | - | - |
| 1777767957 | 32.78° C | 16% | 1007.3 hPa | 0 mm | - | - | - |
| 1777767658 | 32.78° C | 18% | 1007.3 hPa | 0 mm | - | - | - |
| 1777767357 | 33.33° C | 16% | 1007.4 hPa | 0 mm | - | - | - |
| 1777767057 | 33.33° C | 16% | 1007.3 hPa | 0 mm | - | - | - |
* Rain latest hour (hover to see other rain measurements)
** Current wind speed in m/s (hover to see current wind gust speed)